Regional Weather Roundup
Issued by NWS

Home | Current Version | Previous Version | Text Only | Print | Product List | Glossary On
Versions: 1 2 3 4 5 6 7 8 9 10 11 12 13 14 15 16 17 18 19 20 21 22 23 24 25 26 27 28 29 30 31 32 33 34 35 36 37 38 39 40 41 42 43 44 45 46 47 48 49 50
000
ASCA42 TJSJ 181111
RWRPR
PUERTO RICO/U.S. VIRGIN ISLANDS HOURLY WEATHER ROUNDUP
NATIONAL WEATHER SERVICE SAN JUAN PR
700 AM AST FRI APR 18 2014

PRZ001-004-181200-
PUERTO RICO

CITY           SKY/WX    TMP DP  RH WIND       PRES   REMARKS
SAN JUAN LMM   LGT RAIN  75  72  88 E10       30.03R
AGUADILLA      MOSUNNY   73  66  78 E9        30.03
CEIBA          PTSUNNY   79  70  73 E14       30.05R
$$

PRZ006-007-181200-
U.S. VIRGIN ISLANDS

CITY           SKY/WX    TMP DP  RH WIND       PRES   REMARKS
CHARLOTTE AMA  MOSUNNY   79  70  73 E15G23    30.02R
CHRISTIANSTED  MOSUNNY   77  70  78 E16G24    30.03R
$$

HOURLY WEATHER ROUNDUP FOR THE NEWS MEDIA

CITY           SKY/WX    TMP DP  RH WIND       PRES   REMARKS
MIAMI          MOCLDY    76  69  79 SE14      30.03R
ORLANDO        CLOUDY    71  66  84 E14       30.07S
NEW YORK       MOCLDY    36  26  67 NE6       30.55R WCI  31
NEWARK         MOCLDY    37  27  67 NE10      30.54R WCI  30
CHICAGO        PTCLDY    41  33  73 N6        30.28R
HARTFORD       PTSUNNY   34  29  82 N5        30.50F WCI  30
BOSTON         MOSUNNY   33  28  81 NE13      30.53F WCI  24
DALLAS         CLOUDY    58  53  84 CALM      30.19R
PHILADELPHIA   CLOUDY    39  27  62 E7        30.54R WCI  34



USA.gov is the U.S. government's official web portal to all federal, state and local government web resources and services.